• In Spain
  • List of Countries
  • For 7 days
  • Water Temperature
  • Satellite Maps
  • Weather Map
  • Weather Widgets
  • user-avatar
    Login

    Hourly Weather Verhniy Hutor

    Today, 15 November, Thursday

    Time Temperature Precipitation Wind Pressure Humidity
    00:00 -3°C° 0 mm 4 mps 752 mmHg 64%
    01:00 -4°C° 0 mm 4 mps 753 mmHg 67%
    02:00 -4°C° 0 mm 3 mps 753 mmHg 65%
    03:00 -4°C° 0 mm 3 mps 753 mmHg 66%
    04:00 -4°C° 0 mm 3 mps 753 mmHg 67%
    05:00 -4°C° 0 mm 4 mps 753 mmHg 68%
    06:00 -4°C° 0 mm 4 mps 754 mmHg 68%
    07:00 -4°C° 0 mm 4 mps 754 mmHg 68%
    08:00 -4°C° 0 mm 4 mps 755 mmHg 68%
    09:00 -3°C° 0 mm 4 mps 755 mmHg 64%
    10:00 -2°C° 0 mm 3 mps 756 mmHg 61%
    11:00 -1°C° 0 mm 3 mps 756 mmHg 58%
    12:00 -1°C° 0 mm 3 mps 756 mmHg 56%
    13:00 0°C° 0 mm 3 mps 756 mmHg 55%
    14:00 0°C° 0 mm 3 mps 757 mmHg 53%
    15:00 -1°C° 0 mm 3 mps 757 mmHg 55%
    16:00 -2°C° 0 mm 3 mps 757 mmHg 57%
    17:00 -4°C° 0 mm 3 mps 758 mmHg 59%
    18:00 -4°C° 0 mm 3 mps 758 mmHg 57%
    19:00 -4°C° 0 mm 3 mps 759 mmHg 55%
    20:00 -4°C° 0 mm 3 mps 759 mmHg 53%
    21:00 -4°C° 0 mm 3 mps 759 mmHg 52%
    22:00 -3°C° 0 mm 2 mps 760 mmHg 50%
    23:00 -3°C° 0 mm 2 mps 760 mmHg 48%

    Tomorrow, 16 November, Friday

    Time Temperature Precipitation Wind Pressure Humidity
    00:00 -4°C° 0 mm 2 mps 760 mmHg 46%
    01:00 -4°C° 0 mm 2 mps 760 mmHg 45%
    02:00 -4°C° 0 mm 2 mps 761 mmHg 43%
    03:00 -4°C° 0 mm 2 mps 761 mmHg 41%
    04:00 -5°C° 0 mm 3 mps 761 mmHg 39%
    05:00 -5°C° 0 mm 3 mps 761 mmHg 37%
    06:00 -5°C° 0 mm 3 mps 761 mmHg 35%
    07:00 -5°C° 0 mm 3 mps 762 mmHg 34%
    08:00 -5°C° 0 mm 3 mps 762 mmHg 32%
    09:00 -4°C° 0 mm 3 mps 762 mmHg 30%
    10:00 -2°C° 0 mm 3 mps 762 mmHg 28%
    11:00 -1°C° 0 mm 3 mps 763 mmHg 27%
    12:00 -1°C° 0 mm 3 mps 762 mmHg 27%
    13:00 -1°C° 0 mm 3 mps 762 mmHg 27%
    14:00 0°C° 0 mm 3 mps 762 mmHg 28%
    15:00 -1°C° 0 mm 3 mps 762 mmHg 29%
    16:00 -2°C° 0 mm 3 mps 762 mmHg 31%
    17:00 -4°C° 0 mm 3 mps 763 mmHg 33%
    18:00 -4°C° 0 mm 3 mps 763 mmHg 32%
    19:00 -4°C° 0 mm 3 mps 763 mmHg 31%
    20:00 -4°C° 0 mm 3 mps 763 mmHg 30%
    21:00 -5°C° 0 mm 3 mps 763 mmHg 29%
    22:00 -5°C° 0 mm 3 mps 763 mmHg 28%
    23:00 -4°C° 0 mm 2 mps 763 mmHg 27%

    Day after tomorrow, 17 November, Saturday

    Time Temperature Precipitation Wind Pressure Humidity
    00:00 -4°C° 0 mm 2 mps 763 mmHg 26%
    01:00 -4°C° 0 mm 2 mps 762 mmHg 25%
    02:00 -4°C° 0 mm 2 mps 762 mmHg 24%
    03:00 -4°C° 0 mm 2 mps 762 mmHg 24%
    04:00 -4°C° 0 mm 2 mps 762 mmHg 23%
    05:00 -4°C° 0 mm 2 mps 762 mmHg 22%
    06:00 -4°C° 0 mm 2 mps 762 mmHg 22%
    07:00 -4°C° 0 mm 2 mps 762 mmHg 21%
    08:00 -4°C° 0 mm 2 mps 762 mmHg 21%
    09:00 -1°C° 0 mm 1 mps 761 mmHg 19%
    10:00 0°C° 0 mm 1 mps 761 mmHg 17%
    11:00 +1°C° 0 mm 1 mps 761 mmHg 15%
    12:00 +2°C° 0 mm 1 mps 760 mmHg 17%
    13:00 +2°C° 0 mm 1 mps 759 mmHg 18%
    14:00 +1°C° 0 mm 0 mps 759 mmHg 19%
    15:00 +1°C° 0 mm 1 mps 758 mmHg 20%
    16:00 0°C° 0 mm 1 mps 758 mmHg 20%
    17:00 -1°C° 0 mm 1 mps 757 mmHg 21%
    18:00 -1°C° 0 mm 1 mps 757 mmHg 21%
    19:00 -1°C° 0 mm 1 mps 756 mmHg 22%
    20:00 -1°C° 0 mm 1 mps 756 mmHg 22%
    21:00 -3°C° 0 mm 2 mps 755 mmHg 23%
    22:00 -3°C° 0 mm 2 mps 754 mmHg 25%
    23:00 -3°C° 0 mm 2 mps 753 mmHg 26%

    18 November, Sunday

    Time Temperature Precipitation Wind Pressure Humidity
    00:00 -3°C° 0 mm 2 mps 753 mmHg 28%
    01:00 -4°C° 0 mm 3 mps 752 mmHg 31%
    02:00 -4°C° 0 mm 3 mps 751 mmHg 33%
    03:00 -4°C° 0.1 mm 3 mps 751 mmHg 41%
    04:00 -4°C° 0.1 mm 3 mps 750 mmHg 48%
    05:00 -4°C° 0.1 mm 3 mps 749 mmHg 56%
    06:00 -4°C° 0.1 mm 3 mps 749 mmHg 61%
    07:00 -4°C° 0.1 mm 3 mps 748 mmHg 67%
    08:00 -4°C° 0.1 mm 3 mps 748 mmHg 73%
    09:00 -4°C° 0.2 mm 3 mps 747 mmHg 75%
    10:00 -4°C° 0.2 mm 3 mps 747 mmHg 77%
    11:00 -4°C° 0.2 mm 3 mps 747 mmHg 80%
    12:00 -2°C° 0.1 mm 3 mps 747 mmHg 80%
    13:00 -2°C° 0.1 mm 2 mps 747 mmHg 80%
    14:00 -2°C° 0.1 mm 2 mps 747 mmHg 80%
    15:00 -2°C° 0.1 mm 2 mps 747 mmHg 81%
    16:00 -2°C° 0.1 mm 2 mps 747 mmHg 82%
    17:00 -3°C° 0.1 mm 2 mps 747 mmHg 83%
    18:00 -3°C° 0.1 mm 2 mps 747 mmHg 83%
    19:00 -3°C° 0.1 mm 2 mps 747 mmHg 83%
    20:00 -3°C° 0.1 mm 2 mps 747 mmHg 83%
    21:00 -3°C° 0.1 mm 2 mps 747 mmHg 81%
    22:00 -3°C° 0.1 mm 2 mps 748 mmHg 78%
    23:00 -3°C° 0.1 mm 2 mps 748 mmHg 76%

    19 November, Monday

    Time Temperature Precipitation Wind Pressure Humidity
    00:00 -3°C° 0 mm 2 mps 748 mmHg 72%
    01:00 -3°C° 0 mm 2 mps 748 mmHg 69%
    02:00 -3°C° 0 mm 2 mps 749 mmHg 65%
    03:00 -3°C° 0 mm 2 mps 749 mmHg 61%
    04:00 -4°C° 0 mm 2 mps 749 mmHg 58%
    05:00 -4°C° 0 mm 2 mps 749 mmHg 54%
    06:00 -4°C° 0 mm 2 mps 750 mmHg 53%
    07:00 -4°C° 0 mm 2 mps 750 mmHg 53%
    08:00 -6°C° 0 mm 3 mps 751 mmHg 52%
    09:00 -5°C° 0 mm 3 mps 751 mmHg 50%
    10:00 -4°C° 0 mm 3 mps 752 mmHg 49%
    11:00 -2°C° 0 mm 3 mps 753 mmHg 48%
    12:00 -2°C° 0 mm 3 mps 753 mmHg 50%
    13:00 -2°C° 0 mm 3 mps 753 mmHg 52%
    14:00 -2°C° 0 mm 2 mps 753 mmHg 54%
    15:00 -2°C° 0 mm 3 mps 754 mmHg 57%
    16:00 -4°C° 0 mm 3 mps 754 mmHg 59%
    17:00 -5°C° 0 mm 3 mps 754 mmHg 62%
    18:00 -5°C° 0 mm 3 mps 754 mmHg 63%
    19:00 -5°C° 0 mm 3 mps 754 mmHg 64%
    20:00 -5°C° 0 mm 3 mps 755 mmHg 65%
    21:00 -6°C° 0 mm 3 mps 755 mmHg 65%
    22:00 -6°C° 0 mm 3 mps 755 mmHg 66%
    23:00 -6°C° 0 mm 3 mps 755 mmHg 66%

    20 November, Tuesday

    Time Temperature Precipitation Wind Pressure Humidity
    00:00 -6°C° 0 mm 3 mps 755 mmHg 67%
    01:00 -6°C° 0 mm 3 mps 755 mmHg 67%
    02:00 -5°C° 0 mm 2 mps 755 mmHg 67%
    03:00 -5°C° 0 mm 2 mps 755 mmHg 67%
    04:00 -5°C° 0 mm 2 mps 755 mmHg 67%
    05:00 -6°C° 0 mm 2 mps 755 mmHg 67%
    06:00 -7°C° 0 mm 3 mps 755 mmHg 66%
    07:00 -6°C° 0 mm 3 mps 755 mmHg 65%
    08:00 -6°C° 0 mm 3 mps 755 mmHg 64%
    09:00 -5°C° 0 mm 3 mps 755 mmHg 60%
    10:00 -4°C° 0 mm 3 mps 755 mmHg 55%
    11:00 -2°C° 0 mm 3 mps 755 mmHg 51%
    12:00 -2°C° 0 mm 3 mps 755 mmHg 52%
    13:00 -2°C° 0 mm 3 mps 755 mmHg 53%
    14:00 -2°C° 0 mm 2 mps 754 mmHg 54%
    15:00 -3°C° 0 mm 2 mps 754 mmHg 57%
    16:00 -5°C° 0 mm 3 mps 754 mmHg 59%
    17:00 -5°C° 0 mm 3 mps 754 mmHg 61%
    18:00 -4°C° 0 mm 2 mps 754 mmHg 61%
    19:00 -4°C° 0 mm 2 mps 754 mmHg 61%
    20:00 -5°C° 0 mm 2 mps 754 mmHg 62%
    21:00 -5°C° 0 mm 2 mps 754 mmHg 62%
    22:00 -5°C° 0 mm 2 mps 754 mmHg 62%
    23:00 -5°C° 0 mm 2 mps 754 mmHg 62%
    Show more